Theta_e
322 322 322 321 320 319 319 319 319 318 317 316 316 316 316 316 316 316 316 316 316 316 316 318 321 324 325 326 327 327 327 327 328 328 328 328 328 328 328 328 329 328
320 320 320 319 318 318 318 317 318 318 317 316 315 315 315 315 315 315 315 315 316 316 317 318 320 322 323 324 325 326 326 326 327 327 327 328 327 327 327 327 327 327
318 318 318 317 317 316 316 317 317 317 316 314 313 313 313 313 314 314 314 314 314 315 316 317 319 320 321 323 323 323 324 325 325 325 326 326 327 327 327 327 327 327
316 316 316 315 316 316 316 316 315 314 313 312 312 312 312 312 312 312 312 313 313 313 314 315 316 318 319 320 320 320 321 322 322 322 322 324 325 327 327 327 326 327
315 315 315 315 315 315 314 314 313 312 311 310 310 310 310 311 310 310 310 311 311 311 312 312 313 315 316 317 318 319 319 320 320 320 320 321 322 324 326 327 326 326
314 314 314 313 313 312 312 311 311 310 310 310 309 309 309 309 309 309 309 309 309 310 310 310 311 312 312 313 314 316 317 317 317 318 318 319 319 320 323 325 326 327
313 312 312 312 311 311 310 310 310 309 309 309 309 308 308 308 308 308 308 308 309 309 309 310 310 310 311 311 311 312 313 314 314 314 315 316 317 318 320 322 324 325
312 311 311 311 310 310 310 309 309 309 309 309 309 308 308 308 308 308 308 309 309 309 310 310 310 310 311 310 310 310 311 312 312 312 312 313 314 316 317 319 320 322
311 311 310 310 310 309 309 309 309 308 308 308 308 308 308 308 308 308 309 309 309 310 310 310 310 309 309 309 309 309 309 310 310 310 311 311 312 313 314 316 317 319
311 310 310 310 309 309 308 308 308 308 307 307 307 307 308 308 308 308 309 308 309 309 308 308 308 308 308 308 309 308 308 309 309 309 309 309 309 310 311 313 315 317
310 309 309 309 308 308 307 307 307 307 306 306 307 307 307 307 307 308 308 307 307 307 306 307 306 306 307 308 309 309 309 309 309 309 308 309 308 309 310 312 314 316
309 308 308 307 307 307 307 306 306 306 306 306 306 306 307 306 306 307 306 306 306 305 305 305 305 305 306 307 308 310 310 309 309 309 308 309 309 309 311 312 313 315
307 307 307 306 306 306 306 305 305 305 305 305 305 306 305 305 305 305 305 305 305 305 305 305 304 305 306 306 307 309 308 308 308 309 308 308 309 310 311 312 313 314
306 306 305 305 305 305 305 305 305 305 305 305 305 305 304 304 304 304 304 304 304 304 304 304 303 303 303 304 306 308 308 307 307 308 308 308 309 310 311 312 313 315
305 305 304 304 305 304 304 304 304 304 304 304 304 304 304 303 303 303 303 303 303 303 303 303 302 302 303 304 305 307 307 307 307 307 307 307 308 309 310 311 312 314
304 304 303 304 304 304 304 304 304 304 304 304 303 303 303 303 303 303 303 302 302 302 302 302 301 302 304 305 306 307 307 306 306 306 306 306 306 307 308 310 311 312
303 303 302 303 303 303 303 303 304 304 303 303 303 303 303 304 303 303 302 302 302 301 301 301 300 302 306 307 308 309 308 306 306 306 305 305 305 305 306 308 309 310
303 302 302 303 303 303 303 303 303 303 303 303 303 303 303 303 302 301 301 301 301 301 301 300 300 302 306 308 309 309 307 305 305 305 305 304 304 304 304 305 306 307
302 301 302 302 302 303 303 303 302 302 302 302 302 302 301 301 301 301 301 301 301 301 301 300 300 303 306 307 308 309 306 305 304 304 304 303 303 303 303 303 303 304
302 301 302 302 302 303 303 302 301 301 301 301 301 301 300 300 301 301 301 301 301 301 301 300 300 303 306 307 307 307 305 303 303 303 303 303 302 302 302 301 301 302
301 301 301 302 302 302 302 301 300 300 300 300 300 300 300 300 300 300 300 300 300 300 301 299 299 302 305 306 306 305 303 302 303 302 302 302 301 301 301 301 301 301
301 301 301 301 301 301 301 300 300 300 300 300 299 299 299 299 299 299 299 299 299 299 300 299 299 301 304 305 305 304 302 302 302 301 301 300 300 300 300 300 300 299
301 301 301 301 300 300 300 299 299 299 299 299 299 299 299 299 299 298 298 298 298 298 299 299 298 300 302 303 304 303 301 301 301 300 300 300 300 300 300 299 299 299
301 300 300 300 299 299 299 299 299 299 298 299 299 299 299 298 298 298 297 297 297 297 298 298 298 298 300 302 302 302 301 300 301 300 300 299 299 299 299 299 299 299
300 300 299 299 299 299 299 299 298 298 298 298 299 299 299 298 298 298 297 297 297 297 297 297 298 298 299 300 301 301 300 299 299 300 299 299 299 299 299 298 298 298
300 299 299 299 299 299 299 299 298 298 298 298 298 298 298 298 298 298 298 297 297 297 296 297 297 297 297 299 300 300 300 299 299 299 298 298 298 298 298 298 298 298
Wind_Speed
7 6 7 7 8 8 8 8 8 9 9 8 8 7 7 8 10 10 11 12 12 12 11 10 9 9 9 9 9 11 13 14 15 15 15 16 16 16 18 18 17 18
8 7 8 8 8 8 8 9 10 10 10 9 8 7 7 9 10 10 11 12 13 13 11 9 8 8 9 10 9 9 11 13 14 14 15 16 17 17 18 18 18 18
9 9 9 9 9 9 10 10 11 11 9 8 8 8 8 9 9 10 11 11 11 11 10 8 8 8 8 9 10 10 11 12 14 15 15 16 16 17 18 19 20 19
10 10 10 10 10 10 11 10 10 9 8 8 8 8 8 9 9 10 11 11 10 10 10 10 9 8 8 10 11 13 14 14 15 16 17 18 16 16 18 19 19 19
11 11 11 11 11 11 11 10 9 8 8 9 9 9 9 9 9 10 11 11 10 11 11 11 11 10 10 10 11 12 13 14 14 15 17 18 18 17 17 17 18 19
10 11 11 11 12 12 11 10 9 8 9 9 9 9 9 10 10 11 11 12 12 12 12 11 12 12 12 12 12 11 12 13 13 13 14 16 18 18 17 17 18 18
11 11 12 12 12 12 11 10 9 9 9 9 9 9 10 11 12 12 12 13 13 13 13 13 14 14 13 13 13 13 13 13 13 14 14 15 16 16 16 16 17 18
11 11 11 11 11 11 11 10 10 9 9 9 10 10 10 12 12 12 12 13 13 14 14 15 15 15 14 14 15 15 15 14 13 14 15 16 15 15 17 17 17 17
10 10 10 10 10 11 11 10 9 9 9 10 10 10 11 12 12 11 12 13 14 15 15 16 17 16 15 15 16 17 18 17 16 15 15 16 16 16 17 17 17 17
9 9 9 10 10 10 10 10 10 9 10 11 11 11 11 11 11 12 12 13 14 15 15 17 19 18 18 18 19 20 20 20 19 17 16 15 15 15 15 15 15 16
9 9 9 10 10 10 11 10 10 11 11 12 12 12 11 11 11 12 13 13 14 15 15 17 19 19 20 22 23 23 22 21 20 18 16 15 14 13 13 13 13 14
10 9 9 9 10 10 10 10 11 12 12 12 12 12 12 12 12 13 14 14 15 15 16 17 19 21 23 24 24 24 23 21 20 18 16 15 14 13 13 13 13 14
10 9 9 9 9 9 10 10 12 13 13 12 12 12 13 13 14 14 14 14 15 16 16 17 19 22 25 25 25 25 22 19 19 18 18 16 14 13 13 13 14 15
9 9 9 9 9 9 10 11 12 13 12 12 12 13 14 14 14 15 14 14 15 15 16 17 19 23 26 25 25 23 19 16 16 17 17 15 14 13 13 13 13 13
10 10 9 9 10 10 11 12 12 12 12 13 13 13 14 13 14 14 14 15 16 15 16 18 21 25 25 24 23 22 18 15 15 16 17 17 17 17 16 17 16 15
11 11 10 10 10 11 11 12 12 12 13 13 14 14 14 15 17 16 15 15 16 16 16 19 23 25 23 21 21 20 18 16 17 18 18 19 20 20 21 23 22 20
12 12 11 10 11 11 11 12 12 12 13 14 14 14 16 19 20 17 15 15 15 16 17 18 22 25 23 20 20 20 18 17 17 18 19 21 22 21 23 25 25 26
12 13 12 11 11 11 11 11 12 14 15 16 17 17 18 19 17 14 14 15 15 17 18 18 22 25 23 20 19 20 19 17 17 17 18 20 21 21 23 24 25 26
13 13 12 11 11 11 13 14 14 16 18 19 20 19 18 16 15 14 16 16 16 18 18 20 25 27 24 21 20 21 21 17 16 17 16 17 19 20 22 25 25 25
14 13 12 12 11 14 17 17 16 18 20 19 19 18 16 15 16 16 17 17 18 19 18 21 28 29 25 22 21 21 21 17 15 17 17 17 19 19 20 23 24 23
14 13 13 13 14 16 18 18 17 18 19 18 17 16 15 15 15 16 17 18 19 19 18 22 28 29 25 23 21 21 20 16 15 17 18 19 20 20 20 22 22 22
15 14 13 13 14 16 17 17 18 18 18 18 18 18 17 16 16 17 18 18 19 19 19 21 28 30 27 23 22 21 18 16 16 17 18 19 20 20 20 22 24 24
15 15 14 14 16 18 18 19 19 19 20 19 18 19 20 18 17 18 19 19 19 20 19 20 26 31 28 25 24 21 18 17 17 17 17 18 19 20 20 22 26 28
16 16 17 17 18 19 19 20 20 21 21 20 18 18 19 18 18 19 20 21 22 21 20 20 24 29 29 27 26 23 19 17 18 18 17 17 19 20 20 21 26 31
18 18 18 19 20 20 20 21 21 20 21 22 20 19 18 18 19 20 20 22 24 24 24 22 21 26 29 28 27 25 21 17 17 16 17 19 21 22 24 24 25 28
19 19 20 20 20 21 21 21 21 22 23 23 22 20 21 20 20 20 21 22 24 25 25 24 23 24 26 27 27 27 24 21 18 16 16 20 21 21 23 25 24 26
Wind_Direction
76 72 73 71 66 62 51 41 32 22 18 14 9 5 356 351 346 343 343 339 336 332 325 317 314 313 309 306 300 295 293 292 292 292 290 288 285 285 284 276 275 282
76 74 74 70 63 54 42 32 23 11 7 3 0 357 350 349 349 348 349 347 345 343 338 331 329 325 319 316 313 308 303 299 296 294 293 291 286 287 285 276 278 284
78 74 72 65 56 46 33 21 10 2 2 1 356 354 351 351 353 353 352 352 352 352 351 348 341 331 321 318 316 313 309 304 302 300 297 293 289 286 283 281 283 281
74 69 63 55 45 35 23 13 7 6 9 7 2 359 358 356 355 354 355 356 358 359 359 355 348 336 322 317 314 310 307 306 306 307 302 298 296 290 284 286 288 284
67 58 50 41 33 24 18 16 18 20 21 17 13 9 6 3 0 360 1 1 1 1 0 357 353 345 333 329 325 317 312 310 309 309 304 299 299 298 294 291 289 287
59 49 41 34 29 25 25 30 32 32 30 25 20 17 13 11 10 10 9 7 5 4 2 360 357 352 345 342 338 328 320 314 311 310 306 300 297 296 297 297 294 293
54 47 42 37 35 35 40 44 42 37 34 29 26 23 19 18 17 16 15 12 10 9 7 4 2 360 357 354 348 341 331 322 316 311 308 304 299 296 298 301 302 302
53 49 46 43 45 46 46 46 42 38 36 33 31 26 23 23 21 19 18 16 15 13 11 9 6 2 0 358 353 348 340 330 322 316 311 307 303 299 298 300 303 303
56 51 48 47 49 48 46 43 40 39 36 34 33 28 27 27 25 23 21 19 20 18 14 12 10 6 2 357 352 346 340 331 324 317 311 307 304 301 298 297 299 297
58 54 49 48 49 46 43 40 38 40 39 37 37 32 30 29 27 27 24 23 23 20 15 14 12 10 6 360 353 346 340 335 331 325 316 309 304 303 301 298 296 295
60 58 50 47 48 43 41 40 41 43 41 39 38 36 34 30 29 29 26 24 23 18 16 15 13 12 7 1 357 354 349 345 341 336 330 323 315 310 309 304 299 297
62 58 52 48 47 43 41 42 44 45 44 42 40 38 36 33 31 31 28 26 24 20 18 16 14 13 9 4 0 359 358 356 351 346 343 340 334 329 326 320 312 309
61 57 54 51 48 46 45 47 48 47 45 43 42 40 39 36 34 33 30 28 26 23 20 18 16 15 12 8 4 2 1 358 357 356 353 348 341 336 333 327 320 316
63 62 61 57 53 52 52 53 52 49 47 45 44 42 40 38 36 34 32 30 27 24 22 21 18 16 15 11 6 6 5 358 356 359 355 350 347 344 342 338 334 330
72 71 66 60 58 56 56 57 55 52 50 47 46 45 42 39 37 35 33 31 29 27 25 24 21 18 18 16 11 12 13 4 0 3 360 357 357 357 1 5 5 4
75 73 68 62 60 58 58 60 58 55 53 50 49 48 45 44 44 42 38 33 30 27 25 26 22 19 20 20 19 21 23 16 12 12 11 9 8 7 12 16 18 17
75 72 67 62 61 60 60 62 61 59 57 55 53 50 50 51 49 44 39 35 32 29 27 26 22 20 23 24 25 30 33 26 21 20 19 19 18 15 14 15 18 20
74 71 66 65 64 63 64 65 66 65 62 60 59 57 55 53 47 40 37 36 34 32 30 27 21 22 27 30 30 37 40 34 28 26 24 22 21 18 15 12 12 14
76 71 68 68 67 70 74 72 69 68 68 66 64 61 56 48 42 40 39 36 35 34 32 27 23 23 28 32 35 43 46 41 32 29 27 23 21 20 17 13 10 9
79 75 72 74 76 79 79 76 72 70 70 68 63 58 52 45 42 42 40 37 37 36 33 28 25 25 27 30 36 44 46 41 33 33 31 26 24 22 18 15 11 8
84 81 79 80 83 83 79 75 73 71 68 65 60 55 52 49 46 43 41 39 37 36 35 30 26 27 29 31 36 43 43 37 34 36 35 31 29 26 23 20 16 14
90 88 85 84 85 83 80 76 73 71 67 65 62 59 57 54 50 47 43 39 36 36 36 32 28 30 33 34 38 44 42 35 34 36 36 36 34 32 31 28 24 23
94 93 92 91 88 84 81 77 75 73 72 69 65 61 59 55 51 50 47 43 40 37 36 34 31 32 35 36 40 44 41 34 34 35 34 37 38 37 37 35 32 33
100 98 97 95 91 86 83 80 77 75 74 73 68 63 60 56 53 53 50 47 45 41 38 36 33 33 36 38 41 45 43 36 36 37 35 37 39 38 39 38 35 37
105 103 100 95 91 89 87 83 80 78 76 74 71 65 61 58 57 55 52 49 47 45 43 40 35 35 38 40 42 46 47 40 36 36 35 36 37 36 36 36 34 35
107 104 100 96 93 92 90 87 84 81 79 75 71 68 67 64 60 57 54 51 48 47 46 44 41 39 39 40 42 46 49 47 42 36 34 35 36 34 33 34 32 33